User: anonymous   Login
Location: Unspecified
(42.0334°N, 93.6656°W)
Time: 05:07:24
(UTC-05:00)
Language:

Iridium 63 - Orbit

View from above orbital plane
View from above orbital plane
View from above satellite
View from above satellite

Ground track
Ground track

The orbit data is extracted from the following two-line orbital elements,

1 25286U 98021B   15184.50372796  .00000159  00000-0  49633-4 0  9995
2 25286 086.4005 163.0150 0002051 088.8434 028.3500 14.34474589902588
Epoch (UTC): 03 July 2015 12:05:22
Eccentricity: 0.0002051
inclination: 86.4005°
perigee height: 775 km
apogee height: 778 km
right ascension of ascending node: 163.0150°
argument of perigee: 88.8434°
revolutions per day: 14.34474589
mean anomaly at epoch: 28.3500°
orbit number at epoch: 90258

The dashed part of the orbit path shows where the satellite is in the earth's shadow,  

DLR